Regional Weather Roundup
Issued by NWS State College, PA

Home | Current Version | Previous Version | Graphics & Text | Print | Product List | Glossary Off
Versions: 1 2 3 4 5 6 7 8 9 10 11 12 13 14 15 16 17 18 19 20 21 22 23 24 25 26 27 28 29 30 31 32 33 34 35 36 37 38 39 40 41 42 43 44 45 46 47 48 49 50

000
ASUS41 KCTP 241110
RWRCTP

REGIONAL WEATHER ROUNDUP
NATIONAL WEATHER SERVICE STATE COLLEGE PA
700 AM EDT WED AUG 24 2016

Note: "fair" indicates few or no clouds below 12,000 feet with no
significant weather and/or obstructions to visibility.

* = STATION THAT DOES NOT REPORT PRECIPITATION /E.G. RAIN...SNOW...ETC/
    THUNDER OR FOG.

PAZ002>004-007>009-013>016-020>023-029>032-241200-
WESTERN PENNSYLVANIA

CITY           SKY/WX    TMP DP  RH WIND       PRES   REMARKS
ERIE           CLEAR     64  57  78 S9        30.22S
MEADVILLE      CLEAR     59  55  87 CALM      30.26R
FRANKLIN*      CLEAR     54  52  94 CALM      30.27S
NEW CASTLE     FAIR      55  54  96 CALM      30.26R FOG
BEAVER COUNTY  CLEAR     59  59 100 S3        30.26
BUTLER*        NOT AVBL
PITTSBURGH INT MOCLDY    61  57  87 CALM      30.25R
PITTSBURGH     PTCLDY    62  58  86 SE5       30.25R
INDIANA*       CLEAR     61  59  94 CALM      30.31R
LATROBE        CLEAR     57  57 100 CALM      30.28R
WASHINGTON CO* PTCLDY    55  54  94 CALM      30.26S
$$

PAZ004>006-010>012-017>019-024>028-033>037-041-042-045-046-049>053-241200-
CENTRAL PENNSYLVANIA

CITY           SKY/WX    TMP DP  RH WIND       PRES   REMARKS
BRADFORD       CLEAR     51  51 100 CALM      30.31R
DUBOIS         CLEAR     57  54  89 E3        30.29R
CLEARFIELD     PTCLDY    53  53 100 CALM      30.31R FOG
JOHNSTOWN      CLEAR     61  59  93 SW6       30.32R
ALTOONA        CLEAR     57  57 100 CALM      30.31R FOG
STATE COLLEGE  CLEAR     57  55  94 CALM      30.31R
WILLIAMSPORT   MOCLDY    59  56  89 CALM      30.30R
SELINSGROVE    FOG       58  58 100 CALM      30.31R VSB 1/2
FT INDIANTOWN  CLEAR     58  57  99 CALM      30.30R
CAPITAL CITY   CLEAR     63  59  87 CALM      30.30R
HARRISBURG     CLEAR     63  63 100 S3        30.29R
YORK           CLEAR     55  54  96 CALM      30.30R FOG
$$

PAZ038>040-043-044-047-048-054-055-060>062-067>071-241200-
EASTERN PENNSYLVANIA

CITY           SKY/WX    TMP DP  RH WIND       PRES   REMARKS
SCRANTON       CLEAR     59  56  89 SE3       30.31R
MOUNT POCONO   CLEAR     55  52  89 CALM      30.33R
ALLENTOWN      CLEAR     58  56  93 CALM      30.30R
QUAKERTOWN*    SUNNY     55  54  94 CALM      30.32R
READING        CLEAR     61  58  90 CALM      30.30R
LANCASTER      PTCLDY    60  60 100 CALM      30.30R FOG
COATESVILLE    SUNNY     63  59  88 W3        30.33R
POTTSTOWN      CLEAR     58  57  97 CALM      30.32R
BLUE BELL      CLEAR     55  55 100 CALM      30.30R
DOYLESTOWN     CLEAR     62  60  93 MISG      30.30R
WILLOW GROVE   NOT AVBL
NORTH PHILA    CLEAR     64  59  83 CALM      30.31R
PHILADELPHIA   PTCLDY    68  61  78 W6        30.30R
$$




USA.gov is the U.S. government's official web portal to all federal, state and local government web resources and services.